Content
SEND FEEDBACK

Daily
Averages
Monthly
Summary
United States of America

CAYOTE, TEXAS


Home > North America > United States > Texas
Elevation: 710 feet     Latitude: 31 48N     Longitude: 097 26W

WEATHER
 
SELECT A DAY
Number of Records: 200,527;   Date Range: 1/1/95 - 7/31/14
 
SHARE

PRINT THIS DATA

[ ← Previous Day ]
WEATHER ALMANAC - JANUARY 31, 2013
[ Next Day → ]
[ °C ]   °F
Weather ElementAverageHighLow
Temperature49.8 °F69.1 °F (1:51 pm)30 °F (4:51 am)
Dewpoint22.7 °F28 °F (10:51 pm)16 °F (1:51 pm)
Humidity40.9 %72 % (4:51 am)13 % (1:51 pm)
Barometer30.20 in30.25 in (9:51 am)30.14 in (2:51 pm)
Wind Speed10.4 mph18.4 mph (1:51 pm)
Wind Gust23 mph (1:51 pm)
Weather ElementAverage
Visibility10 mi
Wind DirectionSSW (215.7 °)

Weather ElementTotal
Precipitation---
Heating Degree Days15.5 (Base 65)
Averaged from 23 records on January 31, 2013
WEATHER CONDITIONS BREAKOUT
WIND DIRECTION BREAKOUT
WEATHER BY HOUR - JANUARY 31, 2013
[ °C ]   °F
Local TimeTemperatureDewpointHumidityBarometerVisibilityWind DirectionWind SpeedGust SpeedPrecipitationEventsConditions
1:51 AM35.1 °F25.0 °F67 %30.19 in10.0 miSSW (210°)9.2 mphClear
2:51 AM35.1 °F23.0 °F61 %30.19 in10.0 miSSW (210°)9.2 mphClear
3:51 AM32.0 °F23.0 °F69 %30.19 in10.0 miSSW (210°)8.1 mphClear
4:51 AM30.0 °F21.9 °F72 %30.17 in10.0 miSouth (170°)3.5 mphClear
5:51 AM30.9 °F21.9 °F69 %30.18 in10.0 miSouth (190°)5.8 mphClear
6:51 AM34.0 °F24.1 °F67 %30.19 in10.0 miSSW (210°)10.4 mphClear
7:51 AM36.0 °F24.1 °F62 %30.22 in10.0 miSSW (210°)6.9 mphClear
8:51 AM43.0 °F24.1 °F47 %30.24 in10.0 miSW (220°)13.8 mphClear
9:51 AM52.0 °F23.0 °F32 %30.25 in10.0 miWSW (240°)11.5 mphClear
10:51 AM60.1 °F19.0 °F20 %30.25 in10.0 miWSW (250°)16.1 mphClear
11:51 AM64.0 °F19.0 °F18 %30.23 in10.0 miSW (220°)12.7 mph20.7 mphClear
12:51 PM66.9 °F17.1 °F15 %30.20 in10.0 miSW (230°)13.8 mphClear
1:51 PM69.1 °F16.0 °F13 %30.17 in10.0 miSW (230°)18.4 mph23.0 mphClear
2:51 PM69.1 °F18.0 °F14 %30.14 in10.0 miWSW (240°)18.4 mphClear
3:51 PM69.1 °F17.1 °F14 %30.14 in10.0 miSW (220°)18.4 mph23.0 mphClear
4:51 PM66.9 °F19.9 °F17 %30.14 in10.0 miSSW (210°)11.5 mphClear
5:51 PM60.1 °F24.1 °F25 %30.14 in10.0 miSSW (200°)6.9 mphClear
6:51 PM55.0 °F27.0 °F34 %30.17 in10.0 miSouth (180°)5.8 mphClear
7:51 PM48.0 °F27.0 °F44 %30.21 in10.0 miSouth (190°)9.2 mphClear
8:51 PM52.0 °F26.1 °F37 %30.22 in10.0 miSSW (200°)10.4 mphClear
9:51 PM44.1 °F27.0 °F51 %30.23 in10.0 miSouth (190°)6.9 mphClear
10:51 PM48.0 °F28.0 °F46 %30.23 in10.0 miSW (220°)9.2 mphClear
11:51 PM46.0 °F27.0 °F47 %30.25 in10.0 miNW (310°)3.5 mphClear
Hourly data recorded from KACT, located miles away from Cayote, Texas







STORIES FROM OUR PARTNERS